Change the Weather History Date:

Monday, December 31, 2012

  Actual Average (KFNT) Record (KFNT)
Temperature  
Mean Temperature 25 °F 24 °F  
Max Temperature 33 °F 31 °F 61 °F (1965)
Min Temperature 17 °F 17 °F -11 °F (1963)
Degree Days  
Heating Degree Days 40 41  
Month to date heating degree days 1163  
Since 1 July heating degree days 2645  
Cooling Degree Days 0 0  
Month to date cooling degree days 0  
Year to date cooling degree days 531  
Moisture  
Dew Point 21 °F    
Average Humidity 75    
Maximum Humidity 88    
Minimum Humidity 65    
Precipitation  
Precipitation 0.00 in 0.06 in 1.04 in (1978)
Month to date precipitation 1.92  
Year to date precipitation 31.37  
Snow  
Snow 0.00 in 0.50 in 3.70 in (1974)
Month to date snowfall 11.8  
Since 1 July snowfall 14.7  
Snow Depth -    
Sea Level Pressure  
Sea Level Pressure 29.96 in    
Wind  
Wind Speed 9 mph (WSW)    
Max Wind Speed 15 mph    
Max Gust Speed 24 mph    
Visibility 10 miles    
Events      
T = Trace of Precipitation, MM = Missing Value Source: NWS Daily Summary

Daily Weather History Graph

Daily Weather History Graph

Search for Another Location

Airport or City:

Trip Planner

Search our weather history database for the weather conditions in past years. The results will help you decide how hot, cold, wet, or windy it might be!

Date:

Astronomy

Dec. 31, 2012 Rise Set
Actual Time 8:04 AM EST 5:08 PM EST
Civil Twilight 7:32 AM EST 5:40 PM EST
Nautical Twilight 6:56 AM EST 6:16 PM EST
Astronomical Twilight 6:22 AM EST 6:50 PM EST
Moon 8:43 PM EST (12/31) 9:40 AM EST (12/31)
Length of Visible Light 10h 08m
Length of Day
9h 03m
Waning Gibbous, 90% of the Moon is Illuminated
Dec 31
Waning Gibbous
Jan 4
Last Quarter
Jan 11
New
Jan 18
First Quarter
Jan 26
Full

Hourly Weather History & Observations

Time (EST) Temp. Windchill Dew Point Humidity Pressure Visibility Wind Dir Wind Speed Gust Speed Precip Events Conditions
12:13 AM 17.4 °F 10.4 °F 14.4 °F 88% 30.13 in 7.0 mi SSW 4.6 mph - N/A   Clear
12:32 AM 19.2 °F 11.3 °F 15.6 °F 86% 30.12 in 7.0 mi SSW 5.8 mph - N/A   Clear
12:53 AM 20.7 °F 11.0 °F 16.7 °F 85% 30.10 in 7.0 mi SSW 8.1 mph - N/A   Scattered Clouds
1:13 AM 21.0 °F 11.4 °F 17.2 °F 85% 30.10 in 7.0 mi SSW 8.1 mph - N/A   Scattered Clouds
1:32 AM 21.2 °F 10.9 °F 17.4 °F 85% 30.09 in 7.0 mi SSW 9.2 mph - N/A   Clear
1:53 AM 21.7 °F 13.2 °F 17.6 °F 84% 30.08 in 7.0 mi SSW 6.9 mph - N/A   Clear
2:13 AM 22.1 °F 12.8 °F 18.0 °F 84% 30.07 in 10.0 mi SW 8.1 mph - N/A   Clear
2:33 AM 22.6 °F 12.6 °F 18.1 °F 83% 30.07 in 10.0 mi SSW 9.2 mph - N/A   Clear
2:53 AM 22.6 °F 14.3 °F 18.0 °F 82% 30.06 in 10.0 mi SSW 6.9 mph - N/A   Clear
3:13 AM 23.0 °F 14.7 °F 17.6 °F 80% 30.05 in 10.0 mi SSW 6.9 mph - N/A   Clear
3:33 AM 23.2 °F 16.0 °F 17.6 °F 79% 30.04 in 10.0 mi SSW 5.8 mph - N/A   Clear
3:53 AM 23.7 °F 14.7 °F 17.4 °F 77% 30.03 in 10.0 mi SSW 8.1 mph - N/A   Clear
4:13 AM 23.7 °F 14.7 °F 17.1 °F 76% 30.02 in 10.0 mi South 8.1 mph - N/A   Clear
4:33 AM 23.0 °F 14.7 °F 16.7 °F 77% 30.00 in 10.0 mi South 6.9 mph - N/A   Clear
4:53 AM 25.3 °F 17.6 °F 17.6 °F 72% 29.99 in 10.0 mi South 6.9 mph - N/A   Clear
5:13 AM 26.1 °F 15.6 °F 17.6 °F 70% 29.98 in 10.0 mi SSW 11.5 mph - N/A   Clear
5:33 AM 26.4 °F 17.3 °F 17.6 °F 69% 29.98 in 10.0 mi SW 9.2 mph - N/A   Clear
5:53 AM 26.2 °F 16.4 °F 17.8 °F 70% 29.98 in 10.0 mi SW 10.4 mph - N/A   Clear
6:12 AM 26.6 °F 16.2 °F 18.1 °F 70% 29.98 in 10.0 mi SW 11.5 mph 16.1 mph N/A   Clear
6:33 AM 26.6 °F 15.7 °F 18.0 °F 70% 29.97 in 10.0 mi SW 12.7 mph - N/A   Clear
6:53 AM 26.6 °F 16.2 °F 18.3 °F 71% 29.98 in 10.0 mi SW 11.5 mph - N/A   Clear
7:12 AM 26.6 °F 16.2 °F 18.3 °F 71% 29.97 in 10.0 mi SW 11.5 mph 17.3 mph N/A   Clear
7:33 AM 26.6 °F 16.8 °F 18.5 °F 71% 29.96 in 10.0 mi SW 10.4 mph 19.6 mph N/A   Clear
7:53 AM 26.2 °F 16.4 °F 18.5 °F 73% 29.96 in 10.0 mi SW 10.4 mph - N/A   Clear
8:12 AM 26.2 °F 15.8 °F 18.7 °F 73% 29.95 in 10.0 mi SW 11.5 mph 17.3 mph N/A   Clear
8:33 AM 26.4 °F 15.5 °F 19.0 °F 74% 29.95 in 10.0 mi SW 12.7 mph - N/A   Clear
8:53 AM 26.6 °F 15.7 °F 19.4 °F 74% 29.95 in 10.0 mi SW 12.7 mph - N/A   Scattered Clouds
9:12 AM 27.5 °F 18.0 °F 20.3 °F 74% 29.95 in 10.0 mi SW 10.4 mph 16.1 mph N/A   Mostly Cloudy
9:33 AM 28.0 °F 17.5 °F 20.7 °F 74% 29.94 in 10.0 mi SW 12.7 mph 17.3 mph N/A   Overcast
9:53 AM 28.4 °F 17.5 °F 21.2 °F 74% 29.94 in 10.0 mi SSW 13.8 mph - N/A   Overcast
10:12 AM 28.9 °F 18.6 °F 21.6 °F 74% 29.94 in 10.0 mi SW 12.7 mph - N/A   Overcast
10:33 AM 29.3 °F 18.6 °F 21.9 °F 74% 29.94 in 10.0 mi SW 13.8 mph 24.2 mph N/A   Overcast
10:53 AM 29.8 °F 19.8 °F 22.5 °F 74% 29.94 in 10.0 mi SW 12.7 mph 19.6 mph N/A   Overcast
11:12 AM 30.2 °F 20.8 °F 23.0 °F 75% 29.94 in 10.0 mi SW 11.5 mph 20.7 mph N/A   Overcast
11:33 AM 30.7 °F 21.4 °F 23.4 °F 74% 29.93 in 10.0 mi SW 11.5 mph 19.6 mph N/A   Overcast
11:53 AM 31.5 °F 21.8 °F 23.9 °F 74% 29.92 in 10.0 mi SW 12.7 mph 19.6 mph N/A   Overcast
12:12 PM 31.6 °F 21.6 °F 24.1 °F 74% 29.91 in 10.0 mi SW 13.8 mph 17.3 mph N/A   Overcast
12:33 PM 32.0 °F 23.0 °F 24.6 °F 74% 29.90 in 10.0 mi SW 11.5 mph 16.1 mph N/A   Overcast
12:53 PM 32.2 °F 23.8 °F 25.2 °F 75% 29.89 in 10.0 mi SW 10.4 mph 16.1 mph N/A   Overcast
1:12 PM 32.9 °F 22.8 °F 25.5 °F 74% 29.87 in 10.0 mi WSW 15.0 mph - N/A   Overcast
1:33 PM 33.3 °F 24.1 °F 26.1 °F 75% 29.86 in 10.0 mi WSW 12.7 mph - N/A   Overcast
1:53 PM 33.3 °F 23.7 °F 26.2 °F 75% 29.86 in 10.0 mi SW 13.8 mph 17.3 mph N/A   Overcast
2:12 PM 33.3 °F 24.1 °F 26.4 °F 76% 29.86 in 10.0 mi WSW 12.7 mph 19.6 mph N/A   Overcast
2:33 PM 33.3 °F 25.7 °F 26.6 °F 77% 29.87 in 10.0 mi WSW 9.2 mph - N/A   Overcast
2:53 PM 33.4 °F 24.8 °F 26.6 °F 76% 29.87 in 10.0 mi WSW 11.5 mph - N/A   Overcast
3:12 PM 33.4 °F 25.4 °F 26.6 °F 76% 29.87 in 10.0 mi WSW 10.4 mph - N/A   Overcast
3:33 PM 33.4 °F 25.4 °F 27.0 °F 77% 29.88 in 10.0 mi WSW 10.4 mph 16.1 mph N/A   Overcast
3:53 PM 33.6 °F 26.2 °F 27.1 °F 77% 29.88 in 10.0 mi WSW 9.2 mph 18.4 mph N/A   Overcast
4:13 PM 33.4 °F 26.6 °F 27.3 °F 78% 29.89 in 10.0 mi WSW 8.1 mph - N/A   Overcast
4:33 PM 33.4 °F 26.6 °F 27.5 °F 79% 29.89 in 10.0 mi WSW 8.1 mph - N/A   Overcast
4:53 PM 33.3 °F 26.4 °F 27.5 °F 79% 29.89 in 10.0 mi WSW 8.1 mph - N/A   Overcast
5:13 PM 33.6 °F 24.6 °F 27.5 °F 78% 29.90 in 10.0 mi West 12.7 mph 18.4 mph N/A   Overcast
5:33 PM 33.3 °F 25.7 °F 26.6 °F 77% 29.90 in 10.0 mi West 9.2 mph 19.6 mph N/A   Overcast
5:53 PM 33.1 °F 25.5 °F 26.6 °F 77% 29.90 in 10.0 mi WNW 9.2 mph 17.3 mph N/A   Overcast
6:12 PM 32.9 °F 24.7 °F 26.2 °F 76% 29.92 in 10.0 mi WNW 10.4 mph - N/A   Overcast
6:33 PM 32.4 °F 25.3 °F 26.1 °F 78% 29.92 in 10.0 mi WNW 8.1 mph 16.1 mph N/A   Overcast
6:59 PM 32.0 °F 23.6 °F 25.3 °F 76% 29.93 in 10.0 mi WNW 10.4 mph - N/A   Overcast
7:33 PM 30.6 °F 21.8 °F 24.1 °F 77% 29.95 in 10.0 mi WNW 10.4 mph - N/A   Overcast
7:53 PM 30.2 °F 23.4 °F 23.2 °F 75% 29.95 in 10.0 mi West 6.9 mph - N/A   Overcast
8:12 PM 30.0 °F 24.1 °F 22.5 °F 73% 29.95 in 10.0 mi West 5.8 mph - N/A   Overcast
8:33 PM 29.8 °F 24.9 °F 22.5 °F 74% 29.95 in 10.0 mi WNW 4.6 mph - N/A   Overcast
8:53 PM 29.3 °F 21.5 °F 22.1 °F 75% 29.95 in 10.0 mi West 8.1 mph - N/A   Overcast
9:33 PM 29.3 °F 21.5 °F 22.1 °F 75% 29.97 in 10.0 mi West 8.1 mph - N/A   Overcast
9:53 PM 29.1 °F 22.1 °F 22.1 °F 75% 29.98 in 10.0 mi WNW 6.9 mph - N/A   Overcast
10:12 PM 28.8 °F 20.2 °F 19.6 °F 69% 29.97 in 10.0 mi NW 9.2 mph - N/A   Overcast
10:33 PM 28.2 °F 21.0 °F 18.0 °F 65% 29.97 in 10.0 mi WNW 6.9 mph - N/A   Overcast
10:53 PM 27.5 °F 19.3 °F 17.2 °F 65% 29.97 in 10.0 mi NW 8.1 mph 16.1 mph N/A   Overcast
11:13 PM 27.1 °F 20.7 °F 17.6 °F 67% 29.98 in 10.0 mi NW 5.8 mph - N/A   Overcast
11:33 PM 27.0 °F 19.5 °F 17.4 °F 67% 29.98 in 10.0 mi NNW 6.9 mph - N/A   Overcast
11:53 PM 26.2 °F 17.8 °F 17.2 °F 69% 29.99 in 10.0 mi NNW 8.1 mph - N/A   Overcast